RH
48 46 42 35 28 22 19 20 28 31 28 36 70 83 43 40 51 72 90 90 92 86 74 75 69 68 65 59 54 53 63 59 47 44 41 35 38 36 37 40 44 41 36 31 31
48 45 40 34 19 15 17 22 34 74 57 96 90 58 54 71 80 97 86 76 71 77 79 77 69 69 60 48 50 55 63 52 40 41 43 41 41 41 42 42 44 45 43 39 36
49 44 41 33 20 20 24 25 77 100 96 96 58 43 68 80 91 98 75 89 81 79 78 83 71 66 62 52 50 47 62 48 45 41 43 45 47 46 47 50 45 44 44 45 46
45 40 38 29 20 27 29 50 90 87 96 74 47 56 77 91 83 96 74 77 76 83 79 79 74 68 61 58 52 66 53 49 46 45 48 50 45 43 42 42 42 42 41 44 44
42 39 38 24 23 30 39 49 78 62 60 55 56 66 81 84 81 85 82 71 79 73 76 71 65 54 63 51 50 55 49 45 46 46 46 45 43 39 37 37 38 38 37 43 48
43 40 38 26 27 32 38 45 46 52 62 67 60 71 81 67 81 82 76 75 74 69 64 62 56 51 52 48 50 45 49 51 46 43 40 35 33 34 35 34 30 29 33 45 49
44 41 39 30 31 32 35 42 45 53 56 72 77 88 73 80 77 65 62 62 64 63 53 52 55 53 52 53 49 52 60 44 35 20 24 25 36 34 30 26 27 27 28 35 45
45 44 41 34 34 32 35 45 47 51 63 77 81 91 78 74 63 59 57 56 59 56 56 58 58 56 55 53 47 52 47 50 21 21 21 27 50 29 25 22 20 19 19 23 31
44 46 42 38 36 31 34 49 46 58 62 78 79 85 66 60 62 63 59 50 51 55 58 55 57 52 47 55 54 43 53 34 29 22 25 28 46 26 16 14 18 23 26 32 33
45 50 45 41 37 32 34 48 52 58 55 65 67 58 58 49 51 47 58 52 47 46 48 52 50 54 52 49 54 42 44 35 37 24 24 30 31 18 12 20 24 27 51 54 63
47 48 47 43 39 34 32 64 68 66 52 49 46 38 39 44 36 46 44 53 50 46 42 38 44 49 30 27 29 32 37 39 27 18 23 28 22 15 13 24 33 34 41 47 56
48 50 49 45 43 38 33 45 63 61 71 46 45 42 46 40 38 37 44 46 34 35 25 31 49 27 24 25 31 34 34 31 25 19 19 22 21 15 13 27 29 32 34 38 44
52 51 49 48 56 58 47 55 68 82 85 45 38 36 40 44 34 33 38 31 30 30 26 29 23 19 25 27 27 26 32 27 28 23 20 20 20 16 11 21 26 29 30 31 36
55 53 50 48 72 65 74 56 63 74 88 48 34 37 43 43 42 36 35 32 28 33 29 29 23 25 27 28 25 32 22 25 28 32 43 22 41 22 15 14 26 27 26 26 28
60 56 51 49 54 69 57 53 64 87 92 31 32 40 36 37 33 38 36 33 35 30 29 31 25 27 31 28 24 31 27 28 30 32 31 28 38 31 19 16 23 25 23 21 28
66 59 51 55 74 57 55 59 83 96 89 38 33 33 34 33 32 36 38 38 33 33 31 32 25 28 30 25 25 24 30 31 30 32 58 43 37 33 22 17 23 21 21 18 24
69 64 56 53 69 52 52 88 97 94 36 41 40 34 36 35 30 31 28 32 35 50 43 32 28 26 23 28 25 30 42 86 84 82 83 30 31 26 17 25 23 22 19 16 22
74 64 65 58 52 47 74 85 74 52 43 40 39 38 42 35 31 30 33 38 30 31 52 61 51 24 24 29 33 36 43 84 79 80 63 33 41 24 15 19 19 17 16 18 21
73 76 88 63 54 48 78 98 70 44 44 48 38 39 38 38 41 44 37 35 32 33 57 73 48 27 26 25 29 38 55 44 69 60 66 48 30 19 13 14 14 18 17 21 22
78 77 93 62 54 65 95 82 44 44 50 48 53 37 48 45 50 65 55 30 32 31 46 60 81 35 29 30 31 39 32 64 83 97 84 42 42 33 20 20 18 20 20 25 23
80 86 84 65 65 78 98 65 43 44 50 56 52 51 44 50 63 67 70 44 28 36 46 75 73 46 39 45 47 52 62 59 82 86 86 80 41 21 24 22 20 19 26 30 31
87 99 88 76 92 89 93 51 54 46 52 55 61 61 57 47 75 69 60 49 33 34 51 58 88 95 62 39 34 41 66 74 95 78 85 80 64 30 26 22 19 18 27 30 34
94 99 89 63 99 97 84 61 54 52 52 56 58 51 47 55 76 68 61 41 44 46 59 54 86 96 70 55 55 62 50 72 84 84 84 90 61 25 23 24 25 29 24 30 31
94 100 99 78 84 72 85 82 70 56 54 50 54 52 59 64 54 74 58 45 45 46 46 56 92 81 78 67 72 80 83 70 72 86 74 69 55 38 32 36 33 32 28 31 28
98 96 88 98 95 85 88 99 85 88 59 58 71 64 66 84 72 65 50 45 43 43 50 73 96 81 73 63 61 61 71 78 86 81 91 62 58 50 45 41 34 27 30 30 28
92 95 85 94 82 94 94 93 90 91 82 79 76 54 54 80 69 72 61 62 67 57 79 86 89 74 89 59 53 55 47 46 61 63 75 72 73 44 35 38 29 27 34 34 33
100 96 91 97 99 98 90 81 97 72 73 60 54 59 62 55 48 56 61 62 65 75 92 91 94 92 87 57 53 68 44 44 44 44 58 64 54 35 38 36 36 36 38 40 35
Wind_Speed
25 25 26 28 28 24 22 21 20 18 16 14 13 13 11 9 7 6 4 7 7 7 4 4 5 4 4 3 3 5 4 6 8 10 11 22 19 26 31 27 27 29 36 35 36
25 27 28 30 28 24 21 19 17 16 14 12 12 11 5 2 7 4 6 13 12 4 3 1 4 6 4 3 3 4 5 8 10 13 15 22 22 27 23 24 25 33 38 35 37
26 28 30 31 27 26 21 18 15 13 13 12 13 5 2 7 2 4 6 11 11 8 4 1 1 2 3 6 6 5 9 11 17 21 24 21 21 26 21 20 26 30 33 37 43
27 29 31 31 26 24 22 17 14 12 11 12 9 2 7 8 1 4 6 5 5 4 1 1 1 2 1 6 4 5 12 16 21 21 19 16 25 23 25 30 33 37 39 39 39
28 30 32 28 26 24 21 17 13 13 12 9 3 7 12 4 7 4 3 7 7 5 1 2 5 6 4 3 7 12 13 14 17 22 21 24 21 18 21 27 32 34 31 27 34
28 31 32 27 25 23 21 18 14 11 8 7 5 11 4 5 2 0 2 5 3 2 2 3 5 7 8 8 7 7 13 19 17 24 25 16 9 16 25 28 29 32 31 29 31
28 30 31 26 24 22 22 17 11 8 8 8 15 10 8 6 3 4 4 1 1 2 3 3 3 3 3 6 7 10 9 15 13 9 8 16 11 10 23 27 30 31 29 28 30
26 28 29 26 23 21 19 12 10 9 7 12 10 9 5 3 5 4 1 3 3 3 1 2 1 4 2 7 5 6 11 4 9 8 11 11 11 14 24 27 27 31 32 27 26
27 28 28 28 22 20 16 8 9 9 8 10 8 5 5 4 2 3 1 1 1 2 1 0 2 5 4 6 6 6 4 11 9 13 11 6 14 12 28 26 18 21 27 28 23
28 29 29 28 21 18 15 6 6 8 6 7 3 1 3 3 1 2 1 2 3 3 5 4 4 5 5 2 3 8 8 9 11 12 9 11 11 16 25 13 17 20 26 28 28
27 28 28 26 18 19 14 8 4 2 6 3 3 6 5 1 2 1 2 1 3 6 6 7 3 7 5 1 6 7 10 11 15 11 13 10 14 17 14 7 13 20 24 24 23
26 27 28 25 16 16 14 6 5 2 3 1 2 3 2 0 3 5 2 4 5 8 1 5 7 7 3 5 7 9 13 15 11 9 14 14 18 19 6 6 8 8 14 18 21
25 25 26 23 12 18 17 12 6 3 4 4 2 1 2 0 3 5 4 1 7 8 8 7 9 2 4 8 10 11 12 13 12 12 12 17 11 12 15 9 10 12 12 15 18
23 24 25 22 8 12 10 11 5 4 2 6 4 2 2 2 4 3 4 3 3 5 6 8 4 2 7 11 11 12 10 14 14 12 7 9 13 10 13 9 8 11 10 13 19
22 23 25 22 8 5 10 11 2 4 2 3 4 2 3 4 6 6 4 4 7 9 4 5 3 5 10 10 6 7 9 12 16 15 14 11 7 7 13 6 6 7 8 13 18
21 21 24 16 8 11 10 5 4 0 2 2 1 1 5 11 4 1 3 5 9 5 9 15 18 5 5 8 8 10 11 14 14 11 8 8 10 2 6 7 3 6 11 14 19
19 22 22 14 2 11 7 5 2 4 3 2 1 2 7 8 5 4 7 7 5 4 3 9 9 8 2 5 8 5 7 4 5 3 4 10 10 6 9 5 2 4 9 18 22
18 21 18 8 4 8 7 1 4 4 6 2 3 8 7 5 1 3 5 8 6 2 3 3 3 4 6 2 4 8 4 3 5 3 10 10 6 7 13 8 8 9 20 24 26
17 17 16 6 10 7 2 4 1 4 3 7 11 4 3 3 2 4 6 9 3 3 2 2 4 2 3 6 1 3 4 2 7 9 9 6 10 9 10 9 10 16 21 22 23
15 11 9 3 8 7 3 1 2 3 2 2 3 1 3 5 2 1 4 5 3 1 7 3 5 8 2 2 7 8 5 2 2 4 4 5 11 12 9 14 8 8 11 22 21
13 5 5 4 3 1 3 2 2 3 1 2 4 5 5 5 1 2 5 4 2 4 5 2 4 3 6 6 8 3 3 4 1 3 3 6 4 10 19 11 7 8 16 19 18
4 2 4 8 1 2 1 2 0 2 3 3 3 5 5 8 4 4 4 3 5 3 3 4 2 4 10 17 6 3 3 3 2 7 4 4 16 14 13 10 6 15 13 14 16
3 4 4 6 2 2 0 1 2 4 4 4 4 6 5 3 3 6 5 1 2 0 2 1 3 4 6 2 5 0 4 5 3 1 16 10 10 12 14 14 16 18 13 11 15
3 1 3 4 3 1 2 2 3 7 4 6 6 6 6 4 8 5 4 2 4 9 12 5 5 8 9 9 5 8 7 8 7 8 13 15 21 16 18 17 20 27 9 13 14
7 4 3 2 4 4 3 2 2 3 5 4 3 10 5 3 6 10 13 9 8 9 10 3 7 10 13 17 17 18 18 18 13 16 13 22 20 21 20 17 22 12 11 10 13
8 5 5 2 6 6 6 6 8 5 6 6 8 6 9 11 11 13 13 8 11 5 2 2 13 11 13 15 19 23 22 21 17 20 15 20 22 20 23 23 18 12 9 9 13
22 15 7 9 5 4 5 7 7 4 11 14 8 6 8 11 11 12 15 16 11 6 5 3 2 3 16 12 13 15 14 14 12 10 5 6 8 9 9 8 10 7 7 6 11
Wind_Direction
353 350 347 344 341 339 335 329 323 319 316 316 320 316 313 309 287 324 311 271 278 292 328 2 355 345 315 267 247 307 266 270 274 292 326 342 336 320 314 311 312 307 305 298 297
354 352 349 347 347 343 336 331 325 322 329 330 318 320 340 37 115 110 296 281 282 247 103 334 358 331 302 253 251 211 267 265 334 332 318 323 316 313 311 305 302 297 290 292 299
355 353 351 350 350 348 344 339 336 332 329 325 320 346 89 124 158 83 30 94 79 71 55 96 168 354 284 304 290 271 259 293 304 312 314 307 308 312 308 294 291 297 299 300 299
357 357 355 355 357 359 353 348 347 339 330 323 333 103 135 123 41 161 158 24 15 120 111 105 350 269 9 282 281 288 280 291 297 301 315 302 298 291 288 287 294 289 287 285 290
357 358 358 1 360 360 358 351 345 340 335 338 26 119 128 131 75 174 308 351 3 25 275 287 278 288 232 290 282 258 269 288 300 294 286 277 267 283 287 297 294 296 290 294 307
357 359 0 2 0 359 355 349 346 353 9 23 102 122 77 141 89 119 281 356 353 357 320 315 299 307 301 283 271 319 320 296 281 263 259 274 313 315 291 298 307 308 296 297 294
357 359 1 1 358 358 354 355 7 22 22 54 116 96 55 106 126 60 56 60 30 329 308 310 302 267 347 274 294 282 282 275 258 351 333 330 301 292 308 313 300 296 294 285 279
356 358 0 1 358 358 356 14 24 28 72 98 95 73 70 108 106 46 24 355 27 23 22 317 285 264 266 281 258 227 237 277 342 336 323 316 294 307 316 306 301 300 297 304 295
353 355 359 359 -0 359 358 23 36 62 84 115 59 43 90 60 62 317 79 277 277 351 347 23 266 283 206 251 290 177 305 327 320 321 305 329 309 310 316 306 331 348 343 347 335
354 354 355 358 2 5 1 23 40 63 36 56 59 155 101 69 298 74 324 164 240 275 253 232 234 249 234 252 308 317 317 310 305 296 335 305 295 312 301 2 352 357 17 5 358
354 351 352 357 3 11 10 352 354 105 30 27 53 97 88 357 28 43 263 241 224 236 267 187 271 245 75 60 285 308 293 287 282 318 304 304 304 295 292 51 26 10 4 5 353
351 351 351 355 359 15 28 56 43 343 322 113 100 94 94 180 225 193 175 244 197 270 142 229 231 51 22 291 276 275 281 290 296 324 326 306 293 281 271 119 84 51 18 1 355
346 350 352 355 2 9 31 44 25 15 260 163 197 228 142 175 290 141 194 303 264 284 264 271 286 301 278 293 291 292 294 303 320 318 298 292 301 325 310 165 121 66 31 5 3
344 347 352 359 1 9 355 1 358 72 274 143 197 167 222 289 244 213 233 290 257 280 335 277 95 2 295 285 287 297 313 332 317 314 301 315 296 278 277 284 97 76 42 12 6
343 346 349 355 352 341 338 345 40 83 50 141 133 224 218 251 330 184 212 228 269 299 330 271 238 282 298 295 331 285 324 310 293 281 285 278 279 289 291 318 68 60 14 22 14
340 343 344 353 351 346 348 40 78 180 29 156 108 243 273 206 223 138 234 223 275 297 259 261 275 283 272 315 303 287 294 282 279 276 262 265 270 273 303 305 35 29 348 25 10
336 336 339 348 256 339 1 53 25 69 193 117 319 261 309 276 277 198 272 242 263 296 333 332 254 185 113 289 304 202 308 320 331 8 241 324 322 292 319 65 29 288 1 16 7
335 332 339 347 355 2 57 292 53 280 39 354 283 291 273 10 212 324 275 271 228 304 308 307 314 157 141 241 319 302 253 184 287 308 302 320 271 289 295 179 220 37 19 7 359
334 337 330 349 352 5 71 51 63 20 341 342 304 257 274 140 261 343 272 272 78 137 208 335 245 75 210 262 6 321 297 246 288 271 279 236 258 298 9 27 14 17 4 357 356
328 317 271 317 353 93 75 228 48 47 342 277 291 25 321 9 289 39 299 27 106 84 90 341 305 275 283 34 249 215 270 333 305 281 286 297 319 288 13 344 358 3 351 356 347
325 303 269 335 31 126 129 50 350 64 344 275 294 296 275 278 109 329 273 299 47 136 115 16 196 281 338 219 244 192 241 225 294 249 269 299 253 334 330 348 357 314 14 359 346
303 280 250 322 17 270 246 48 46 278 191 274 283 264 265 291 230 235 247 219 88 349 245 183 244 259 259 270 324 16 288 126 173 280 242 269 278 272 280 310 299 298 2 350 348
240 256 293 166 186 230 120 275 234 214 228 197 255 227 314 293 285 233 279 86 33 165 275 79 236 302 302 351 30 296 276 209 208 289 260 261 267 312 294 300 339 329 326 350 349
239 262 248 183 257 338 92 269 264 204 260 249 261 256 279 273 257 262 254 278 213 232 242 166 231 208 241 248 293 282 238 243 234 257 276 262 285 297 297 319 323 315 341 349 347
216 227 222 213 217 132 134 156 252 256 211 223 262 235 200 244 257 250 259 278 263 259 229 223 242 236 253 269 275 277 267 258 242 246 248 275 279 284 286 296 300 311 341 338 345
197 188 193 187 145 132 173 209 206 214 165 224 230 255 224 229 236 274 284 274 251 239 218 227 267 274 275 284 280 276 271 265 253 254 249 260 269 276 286 288 299 285 324 345 338
222 217 204 171 165 164 202 202 207 204 225 238 253 260 250 265 292 309 301 294 275 257 182 233 242 269 272 273 290 287 261 251 257 255 238 275 284 303 292 288 299 339 312 334 333